Regional Weather Roundup
Issued by NWS Sterling, VA

Home | Current Version | Previous Version | Text Only | Print | Product List | Glossary Off
Versions: 1 2 3 4 5 6 7 8 9 10 11 12 13 14 15 16 17 18 19 20 21 22 23 24 25 26 27

000
ASUS41 KLWX 222011
RWRLWX

REGIONAL WEATHER ROUNDUP
NATIONAL WEATHER SERVICE BALTIMORE MD/WASHINGTON DC
400 PM EDT THU JUN 22 2017

Note: "FAIR" indicates few or no clouds below 12,000 feet
with no significant weather and/or obstructions to visibility.
 TC=TEMPERATURE CELSIUS

 * =Non NWS site. Station does not report precipitation (e.g. rain,
    snow, etc.), thunder, or fog.

DCZ001-MDZ009-015-VAZ040>042-051-053>054-222100-
WASHINGTON METRO

CITY           SKY/WX    TMP DP  RH WIND       PRES   REMARKS
WASHINGTON NAT CLOUDY    88  68  51 W9        29.98F HX  91
DULLES         CLOUDY    85  68  56 SW10      29.98F
FT BELVOIR     CLOUDY    88  68  51 S5        29.97F HX  91
QUANTICO       CLOUDY    88  72  58 SW7       29.98F HX  94
COLLEGE PARK*  CLOUDY    86  68  54 SW5       29.97F HX  90
LEESBURG*      CLOUDY    88  73  62 SW8       29.99F HX  96

$$

MDZ006>007-011-014-222100-
BALTIMORE METRO

CITY           SKY/WX    TMP DP  RH WIND       PRES   REMARKS
BWI AIRPORT    CLOUDY    87  70  56 W9        29.96F HX  92
MD SCIENCE CTR   N/A     89  69  51 MISG      29.96F HX  93
MARTIN STATE   PTSUNNY   88  70  55 S8        29.97F HX  92
ANNAPOLIS      CLOUDY    85  75  72 VRB3      29.96F HX  93
FORT MEADE*    PTSUNNY   84  70  61 SW6       29.99F

$$

MDZ012-015-019>023-222100-
MARYLAND EASTERN SHORE

CITY           SKY/WX    TMP DP  RH WIND       PRES   REMARKS
OCEAN CITY     MOSUNNY   82  75  79 S7        29.98F
SALISBURY      CLOUDY    86  69  56 SW10      29.98F HX  90
BAY BRIDGE AP* CLOUDY    86  72  62 SW6       29.97F HX  92
CAMBRIDGE*     PTSUNNY   86  72  62 VRB5G12   29.98F HX  92
EASTON*        CLOUDY    86  72  62 W6        30.02F HX  92

$$

MDZ017>025-222100-
SOUTHERN MARYLAND

CITY           SKY/WX    TMP DP  RH WIND       PRES   REMARKS
PATUXENT RIVER CLOUDY    87  70  56 W7        29.98F HX  92
ST INIGOES     CLOUDY    88  72  58 SW5       29.97F HX  94
LEONARDTOWN*   CLOUDY    86  68  54 SW8       30.00F

$$

MDZ003>005-222100-
NORTH CENTRAL MARYLAND

CITY           SKY/WX    TMP DP  RH WIND       PRES   REMARKS
FREDERICK*     MOSUNNY   88  68  51 SW8       30.00F HX  91
HAGERSTOWN APT CLOUDY    88  68  51 SW8       29.97F HX  91
WESTMINSTER*   CLOUDY    88  72  58 SW8       29.99F HX  94

$$

MDZ501>502-222100-
WESTERN MARYLAND

CITY           SKY/WX    TMP DP  RH WIND       PRES   REMARKS
OAKLAND*       NOT AVBL
CUMBERLAND*    CLOUDY    88  70  55 SW9       30.01F HX  92

$$

VAZ025>031-222100-
SHENANDOAH VALLEY

CITY           SKY/WX    TMP DP  RH WIND       PRES   REMARKS
WINCHESTER*    CLOUDY    82  68  61 S5        30.00S
FRONT ROYAL*   CLOUDY    86  72  62 S6        30.00S HX  92
LURAY*         CLOUDY    86  68  54 SW6       30.01F
NEW MARKET*    CLOUDY    85  69  57 S10G16    29.99F
STAUNTON*      MOSUNNY   84  67  56 SW9       30.06F
WAYNESBORO*    CLOUDY    82  70  67 S6        30.07S

$$

WVZ021-048>050-054>055-222100-
EASTERN WEST VIRGINIA PANHANDLE

CITY           SKY/WX    TMP DP  RH WIND       PRES   REMARKS
MARTINSBURG    CLOUDY    86  69  56 S8        29.97F HX  90
PETERSBURG*    CLOUDY    89  69  51 W7        30.01F HX  92

$$

VAZ036>039-050-222100-
CENTRAL FOOTHILLS

CITY           SKY/WX    TMP DP  RH WIND       PRES   REMARKS
CHARLOTTESVILL CLOUDY    88  69  53 SW8       30.01F HX  92
CULPEPER*      CLOUDY    87  71  57 SW5       30.00F HX  93
ORANGE*        CLOUDY    86  72  62 SW8       30.00F HX  92
GORDONSVILLE*  CLOUDY    87  71  59 SW8       30.00F HX  93
WARRENTON*     CLOUDY    88  68  51 SW3       29.99F HX  91

$$

VAZ055>057-222100-
NORTH AND CENTRAL PIEDMONT

CITY           SKY/WX    TMP DP  RH WIND       PRES   REMARKS
FREDERICKSBRG* CLOUDY    89  71  54 SW9       29.98F HX  95
STAFFORD*      PTSUNNY   86  71  62 SW3       30.03F HX  91

$$

NCZ024-NYZ072-PAZ021-071-VAZ022-071-222100-
OTHER REGIONAL OBSERVATIONS

CITY           SKY/WX    TMP DP  RH WIND       PRES   REMARKS
NEW YORK CITY  SUNNY     82  61  48 VRB3      29.96F
PHILADELPHIA   CLOUDY    88  66  48 SW13G20   29.95F HX  90
PITTSBURGH     CLOUDY    85  70  60 SW14      29.96F
ROANOKE        CLOUDY    84  67  56 S7        30.08F
RICHMOND       CLOUDY    87  71  58 SW12      30.01F HX  93
RALEIGH        LGT RAIN  80  71  74 W12       30.09F

$$

ANZ530>537-222100-
MARINE OBSERVATIONS

STATION/POSITION TIME  TEMP    WIND        PRES
                       AIR SEA DIR/SP/G
                 (UTC) (F)     (DEG/KT/KT) (MB)
THOMAS PT LIGHT  2000   83 78  180/  2/  2   N/A
BALT KEY BRIDGE  1942   85     230/ 12/ 14 1014.2F
COVE POINT       1942   86     280/  4/  6 1016.0F
LEWISETTA        1942   87 79  250/  6/ 11 1015.3F
SOLOMONS ISLAND  1942   86 76  250/  6/  8   N/A
PINEY POINT      1948          360/  5/  6   N/A

$$





USA.gov is the U.S. government's official web portal to all federal, state and local government web resources and services.